• In Belarus
  • List of Countries
  • For 7 days
  • Water Temperature
  • Satellite Maps
  • Weather Map
  • Weather Widgets
  • user-avatar
    Login

    Hourly Weather Stara Zagora

    Today, 19 July, Thursday

    Time Temperature Precipitation Wind Pressure Humidity
    00:00 +20°C° 0 mm 3 mps 735 mmHg 74%
    01:00 +20°C° 0 mm 3 mps 735 mmHg 75%
    02:00 +19°C° 0 mm 3 mps 735 mmHg 76%
    03:00 +19°C° 0 mm 3 mps 735 mmHg 76%
    04:00 +19°C° 0 mm 3 mps 735 mmHg 76%
    05:00 +18°C° 0 mm 2 mps 735 mmHg 76%
    06:00 +20°C° 0 mm 3 mps 735 mmHg 71%
    07:00 +22°C° 0 mm 4 mps 735 mmHg 66%
    08:00 +23°C° 0 mm 4 mps 735 mmHg 60%
    09:00 +26°C° 0.1 mm 4 mps 735 mmHg 58%
    10:00 +27°C° 0.1 mm 4 mps 736 mmHg 55%
    11:00 +28°C° 0.1 mm 4 mps 736 mmHg 53%
    12:00 +28°C° 0.5 mm 4 mps 736 mmHg 53%
    13:00 +28°C° 0.5 mm 4 mps 736 mmHg 54%
    14:00 +28°C° 0.5 mm 4 mps 736 mmHg 54%
    15:00 +28°C° 0.8 mm 4 mps 736 mmHg 55%
    16:00 +28°C° 0.8 mm 4 mps 736 mmHg 57%
    17:00 +28°C° 0.8 mm 4 mps 736 mmHg 58%
    18:00 +27°C° 0.7 mm 3 mps 736 mmHg 64%
    19:00 +25°C° 0.7 mm 3 mps 736 mmHg 70%
    20:00 +24°C° 0.7 mm 3 mps 736 mmHg 76%
    21:00 +23°C° 0.1 mm 2 mps 736 mmHg 77%
    22:00 +21°C° 0.1 mm 2 mps 736 mmHg 79%
    23:00 +21°C° 0.1 mm 2 mps 737 mmHg 81%

    Tomorrow, 20 July, Friday

    Time Temperature Precipitation Wind Pressure Humidity
    00:00 +20°C° 0 mm 2 mps 737 mmHg 81%
    01:00 +20°C° 0 mm 2 mps 737 mmHg 81%
    02:00 +20°C° 0 mm 2 mps 737 mmHg 82%
    03:00 +19°C° 0 mm 2 mps 737 mmHg 82%
    04:00 +19°C° 0 mm 2 mps 737 mmHg 82%
    05:00 +19°C° 0 mm 2 mps 737 mmHg 83%
    06:00 +21°C° 0 mm 2 mps 737 mmHg 77%
    07:00 +24°C° 0 mm 2 mps 737 mmHg 71%
    08:00 +26°C° 0 mm 3 mps 738 mmHg 65%
    09:00 +27°C° 0 mm 3 mps 738 mmHg 60%
    10:00 +29°C° 0 mm 3 mps 738 mmHg 55%
    11:00 +30°C° 0 mm 3 mps 738 mmHg 50%
    12:00 +31°C° 0.6 mm 3 mps 738 mmHg 49%
    13:00 +31°C° 0.6 mm 3 mps 738 mmHg 48%
    14:00 +33°C° 0.6 mm 3 mps 737 mmHg 47%
    15:00 +33°C° 0.5 mm 3 mps 737 mmHg 49%
    16:00 +31°C° 0.5 mm 3 mps 737 mmHg 50%
    17:00 +31°C° 0.5 mm 3 mps 737 mmHg 52%
    18:00 +29°C° 0.3 mm 3 mps 737 mmHg 56%
    19:00 +28°C° 0.3 mm 2 mps 737 mmHg 61%
    20:00 +26°C° 0.3 mm 2 mps 738 mmHg 66%
    21:00 +26°C° 0.1 mm 2 mps 738 mmHg 68%
    22:00 +25°C° 0.1 mm 2 mps 738 mmHg 69%
    23:00 +24°C° 0.1 mm 2 mps 738 mmHg 71%

    Day after tomorrow, 21 July, Saturday

    Time Temperature Precipitation Wind Pressure Humidity
    00:00 +24°C° 0 mm 2 mps 738 mmHg 72%
    01:00 +23°C° 0 mm 2 mps 738 mmHg 74%
    02:00 +23°C° 0 mm 2 mps 738 mmHg 75%
    03:00 +21°C° 0 mm 2 mps 738 mmHg 76%
    04:00 +21°C° 0 mm 2 mps 738 mmHg 76%
    05:00 +20°C° 0 mm 2 mps 738 mmHg 77%
    06:00 +23°C° 0 mm 2 mps 739 mmHg 71%
    07:00 +25°C° 0 mm 2 mps 739 mmHg 64%
    08:00 +27°C° 0 mm 3 mps 739 mmHg 58%
    09:00 +28°C° 0 mm 3 mps 739 mmHg 53%
    10:00 +30°C° 0 mm 3 mps 739 mmHg 49%
    11:00 +31°C° 0 mm 3 mps 739 mmHg 44%
    12:00 +33°C° 0 mm 3 mps 739 mmHg 42%
    13:00 +34°C° 0 mm 3 mps 739 mmHg 39%
    14:00 +35°C° 0 mm 3 mps 738 mmHg 37%
    15:00 +34°C° 0 mm 3 mps 738 mmHg 38%
    16:00 +34°C° 0 mm 3 mps 738 mmHg 39%
    17:00 +34°C° 0 mm 3 mps 738 mmHg 40%
    18:00 +31°C° 0 mm 3 mps 738 mmHg 46%
    19:00 +29°C° 0 mm 2 mps 738 mmHg 52%
    20:00 +27°C° 0 mm 2 mps 738 mmHg 59%
    21:00 +26°C° 0 mm 2 mps 739 mmHg 61%
    22:00 +26°C° 0 mm 1 mps 739 mmHg 63%
    23:00 +25°C° 0 mm 1 mps 739 mmHg 66%

    22 July, Sunday

    Time Temperature Precipitation Wind Pressure Humidity
    00:00 +24°C° 0 mm 1 mps 739 mmHg 66%
    01:00 +24°C° 0 mm 1 mps 739 mmHg 67%
    02:00 +23°C° 0 mm 1 mps 739 mmHg 68%
    03:00 +23°C° 0 mm 1 mps 738 mmHg 69%
    04:00 +23°C° 0 mm 1 mps 738 mmHg 70%
    05:00 +22°C° 0 mm 1 mps 738 mmHg 70%
    06:00 +24°C° 0 mm 1 mps 738 mmHg 64%
    07:00 +26°C° 0 mm 1 mps 738 mmHg 57%
    08:00 +28°C° 0 mm 1 mps 739 mmHg 50%
    09:00 +30°C° 0 mm 1 mps 738 mmHg 45%
    10:00 +32°C° 0 mm 2 mps 738 mmHg 39%
    11:00 +34°C° 0 mm 2 mps 738 mmHg 34%
    12:00 +35°C° 0 mm 2 mps 738 mmHg 32%
    13:00 +36°C° 0 mm 2 mps 737 mmHg 30%
    14:00 +37°C° 0 mm 2 mps 737 mmHg 29%
    15:00 +37°C° 0 mm 2 mps 737 mmHg 30%
    16:00 +36°C° 0 mm 2 mps 737 mmHg 31%
    17:00 +36°C° 0 mm 2 mps 736 mmHg 31%
    18:00 +34°C° 0.1 mm 2 mps 736 mmHg 37%
    19:00 +31°C° 0.1 mm 2 mps 736 mmHg 44%
    20:00 +28°C° 0.1 mm 2 mps 736 mmHg 50%
    21:00 +28°C° 0.2 mm 2 mps 736 mmHg 54%
    22:00 +27°C° 0.2 mm 2 mps 736 mmHg 58%
    23:00 +26°C° 0.2 mm 2 mps 736 mmHg 62%

    23 July, Monday

    Time Temperature Precipitation Wind Pressure Humidity
    00:00 +25°C° 0 mm 2 mps 736 mmHg 64%
    01:00 +25°C° 0 mm 2 mps 735 mmHg 66%
    02:00 +24°C° 0 mm 2 mps 735 mmHg 69%
    03:00 +24°C° 0 mm 1 mps 735 mmHg 71%
    04:00 +23°C° 0 mm 1 mps 735 mmHg 73%
    05:00 +23°C° 0 mm 1 mps 735 mmHg 75%
    06:00 +25°C° 0 mm 1 mps 734 mmHg 70%
    07:00 +26°C° 0 mm 1 mps 734 mmHg 64%
    08:00 +28°C° 0 mm 1 mps 734 mmHg 59%
    09:00 +30°C° 0 mm 1 mps 734 mmHg 53%
    10:00 +32°C° 0 mm 1 mps 734 mmHg 46%
    11:00 +34°C° 0 mm 1 mps 733 mmHg 40%
    12:00 +35°C° 0 mm 2 mps 733 mmHg 37%
    13:00 +36°C° 0 mm 2 mps 733 mmHg 34%
    14:00 +37°C° 0 mm 2 mps 732 mmHg 31%
    15:00 +36°C° 0.9 mm 2 mps 732 mmHg 37%
    16:00 +34°C° 0.9 mm 3 mps 732 mmHg 43%
    17:00 +32°C° 0.9 mm 4 mps 731 mmHg 49%
    18:00 +29°C° 5.4 mm 3 mps 732 mmHg 60%
    19:00 +26°C° 5.4 mm 3 mps 732 mmHg 70%
    20:00 +24°C° 5.4 mm 3 mps 732 mmHg 80%
    21:00 +24°C° 0.3 mm 3 mps 732 mmHg 81%
    22:00 +23°C° 0.3 mm 2 mps 733 mmHg 82%
    23:00 +23°C° 0.3 mm 2 mps 733 mmHg 82%

    24 July, Tuesday

    Time Temperature Precipitation Wind Pressure Humidity
    00:00 +21°C° 0 mm 2 mps 733 mmHg 83%
    01:00 +21°C° 0 mm 2 mps 733 mmHg 83%
    02:00 +21°C° 0 mm 2 mps 733 mmHg 83%
    03:00 +20°C° 0 mm 2 mps 733 mmHg 83%
    04:00 +20°C° 0 mm 2 mps 733 mmHg 82%
    05:00 +20°C° 0 mm 2 mps 733 mmHg 82%
    06:00 +21°C° 0.1 mm 2 mps 733 mmHg 77%
    07:00 +23°C° 0.1 mm 2 mps 734 mmHg 72%
    08:00 +25°C° 0.1 mm 2 mps 734 mmHg 67%
    09:00 +26°C° 0.1 mm 2 mps 734 mmHg 62%
    10:00 +27°C° 0.1 mm 2 mps 735 mmHg 57%
    11:00 +29°C° 0.1 mm 2 mps 735 mmHg 52%
    12:00 +29°C° 0.3 mm 2 mps 735 mmHg 53%
    13:00 +29°C° 0.3 mm 3 mps 735 mmHg 53%
    14:00 +30°C° 0.3 mm 3 mps 735 mmHg 53%
    15:00 +30°C° 0.3 mm 3 mps 735 mmHg 55%
    16:00 +29°C° 0.3 mm 3 mps 735 mmHg 56%
    17:00 +29°C° 0.3 mm 3 mps 735 mmHg 57%
    18:00 +28°C° 0.4 mm 2 mps 735 mmHg 63%
    19:00 +26°C° 0.4 mm 2 mps 735 mmHg 68%
    20:00 +25°C° 0.4 mm 2 mps 736 mmHg 74%
    21:00 +24°C° 0.9 mm 2 mps 736 mmHg 77%
    22:00 +23°C° 0.9 mm 2 mps 736 mmHg 81%
    23:00 +22°C° 0.9 mm 1 mps 737 mmHg 85%
    Show more